Regional Weather Roundup
Issued by NWS

Home | Current Version | Previous Version | Graphics & Text | Print | Product List | Glossary On
Versions: 1 2 3 4 5 6 7 8 9 10 11 12 13 14 15 16 17 18 19 20 21 22 23 24 25 26 27 28 29 30 31 32 33 34 35 36 37 38 39 40 41 42 43 44 45 46 47 48 49 50
409
ASUS43 KLSX 200207
RWRMO

WEATHER SUMMARY FOR MISSOURI
NATIONAL WEATHER SERVICE SPRINGFIELD MO
900 PM CDT TUE SEP 19 2017

NOTE: "FAIR" INDICATES FEW OR NO CLOUDS BELOW 12,000 FEET WITH NO
       SIGNIFICANT WEATHER AND/OR OBSTRUCTIONS TO VISIBILITY.
       CURRENT SKY AND/OR WEATHER CONDITIONS ARE NOT AVAILABLE FOR
       CHILLICOTHE AND FARMINGTON.

MOZ001>031-035>038-043-044-053-054-200300-
...NORTHERN AND WESTERN MISSOURI...

CITY           SKY/WX    TMP DP  RH WIND       PRES   REMARKS
KANSAS CTY INT PTCLDY    79  69  71 S16       29.72R
KANSAS C DTWN  CLEAR     83  70  64 SE14G22   29.70S
LEE`S SUMMIT   CLEAR     79  71  76 S16       29.74S
ST JOSEPH      CLEAR     80  71  74 SE12      29.69S
CHILLICOTHE      N/A     80  70  71 SE8       29.76S
KIRKSVILLE     CLEAR     74  66  76 SE9       29.81S

$$
MOZ066>068-077>081-088>096-101>105-200300-
...SOUTHWEST MISSOURI...

CITY           SKY/WX    TMP DP  RH WIND       PRES   REMARKS
SPRINGFIELD    CLEAR     78  65  63 S9        29.85R
JOPLIN         CLOUDY    79  70  74 SE9       29.80R
BRANSON        CLEAR     77  66  69 SE7       29.88R

$$
MOZ032>034-039>042-045>050-055>058-069>072-200300-
...CENTRAL MISSOURI...

CITY           SKY/WX    TMP DP  RH WIND       PRES   REMARKS
COLUMBIA       PTCLDY    77  68  73 SE9       29.83R
JEFFERSON CITY CLEAR     76  67  73 E7        29.82R
ROLLA          CLEAR     76  66  71 SE8       29.87R
SEDALIA        CLEAR     77  71  82 SE7       29.81R
WHITEMAN AFB   PTCLDY    78  74  88 S10       29.77R
WARRENSBURG    CLEAR     75  68  78 SE8       29.77R
OSAGE BEACH    CLEAR     78  67  68 SE5       29.84R

$$
MOZ051-052-059>065-200300-
...EAST CENTRAL MISSOURI...

CITY           SKY/WX    TMP DP  RH WIND       PRES   REMARKS
ST LOUIS INTL  CLEAR     82  68  62 SE7       29.87R
SPIRIT OF STL  CLEAR     79  68  69 SE6       29.85R
ST CHARLES     CLEAR     73  68  84 E8        29.85R

$$
MOZ072>076-082>087-097>100-106>115-200300-
...SOUTH CENTRAL AND SOUTHEAST MISSOURI...

CITY           SKY/WX    TMP DP  RH WIND       PRES   REMARKS
CAPE GIRARDEAU CLEAR     76  70  82 SE8       29.88R
FARMINGTON     CLEAR     75  66  73 S3        29.91R
POPLAR BLUFF   CLEAR     76  68  76 CALM      29.87R
WEST PLAINS    CLEAR     76  66  71 SE5       29.91R

$$



USA.gov is the U.S. government's official web portal to all federal, state and local government web resources and services.